H1 CPF 2 NER 2023 5 21 9 141 01 glonass143 H2 2007501 9143 46805 2023 5 21 0 0 0 2023 5 24 23 45 0 900 1 1 0 0 0 1 H9 10 0 60085 0.00000 0 25054819.236 -4501219.730 -1761732.735 10 0 60085 900.00000 0 25048696.473 -4652023.955 1449570.746 10 0 60085 1800.00000 0 24650206.473 -4705860.744 4632745.337 10 0 60085 2700.00000 0 23881542.962 -4611813.259 7726037.079 10 0 60085 3600.00000 0 22776791.671 -4324898.936 10669452.614 10 0 60085 4500.00000 0 21380489.510 -3808216.548 13405918.913 10 0 60085 5400.00000 0 19745767.038 -3034754.312 15882385.002 10 0 60085 6300.00000 0 17932152.194 -1988782.469 18050844.756 10 0 60085 7200.00000 0 16003127.199 -666771.261 19869261.461 10 0 60085 8100.00000 0 14023540.435 922204.977 21302376.962 10 0 60085 9000.00000 0 12056980.837 2756595.500 22322390.437 10 0 60085 9900.00000 0 10163223.664 4803028.476 22909494.325 10 0 60085 10800.00000 0 8395853.264 7017468.013 23052257.574 10 0 60085 11700.00000 0 6800161.033 9346826.242 22747849.090 10 0 60085 12600.00000 0 5411405.289 11730964.911 22002097.070 10 0 60085 13500.00000 0 4253504.858 14105004.832 20829382.760 10 0 60085 14400.00000 0 3338220.204 16401848.524 19252370.084 10 0 60085 15300.00000 0 2664855.864 18554812.271 17301575.542 10 0 60085 16200.00000 0 2220496.264 20500258.854 15014785.712 10 0 60085 17100.00000 0 1980764.832 22180121.746 12436332.608 10 0 60085 18000.00000 0 1911074.336 23544215.552 9616240.010 10 0 60085 18900.00000 0 1968315.648 24552235.895 6609256.632 10 0 60085 19800.00000 0 2102913.455 25175364.631 3473794.375 10 0 60085 20700.00000 0 2261161.678 25397412.460 270792.284 10 0 60085 21600.00000 0 2387739.205 25215450.312 -2937471.542 10 0 60085 22500.00000 0 2428298.623 24639902.415 -6088596.438 10 0 60085 23400.00000 0 2332017.272 23694096.656 -9121279.613 10 0 60085 24300.00000 0 2054001.373 22413290.934 -11976515.927 10 0 60085 25200.00000 0 1557440.139 20843216.409 -14598752.811 10 0 60085 26100.00000 0 815417.376 19038199.114 -16936977.027 10 0 60085 27000.00000 0 -187697.308 17058939.177 -18945711.539 10 0 60085 27900.00000 0 -1455337.663 14970041.271 -20585902.771 10 0 60085 28800.00000 0 -2978349.850 12837400.275 -21825680.825 10 0 60085 29700.00000 0 -4735138.852 10725551.902 -22640978.051 10 0 60085 30600.00000 0 -6692346.986 8695099.244 -23015994.237 10 0 60085 31500.00000 0 -8806036.813 6800322.653 -22943499.782 10 0 60085 32400.00000 0 -11023329.569 5087072.349 -22424971.467 10 0 60085 33300.00000 0 -13284431.147 3591030.976 -21470558.602 10 0 60085 34200.00000 0 -15524961.404 2336417.654 -20098880.590 10 0 60085 35100.00000 0 -17678489.935 1335186.348 -18336660.134 10 0 60085 36000.00000 0 -19679172.765 586750.599 -16218199.369 10 0 60085 36900.00000 0 -21464380.151 78244.526 -13784709.237 10 0 60085 37800.00000 0 -22977206.026 -214692.462 -11083505.201 10 0 60085 38700.00000 0 -24168754.534 -326641.834 -8167084.984 10 0 60085 39600.00000 0 -25000108.326 -300698.033 -5092106.409 10 0 60085 40500.00000 0 -25443896.698 -186399.743 -1918285.325 10 0 60085 41400.00000 0 -25485398.328 -37388.730 1292764.767 10 0 60085 42300.00000 0 -25123132.940 91104.075 4478728.597 10 0 60085 43200.00000 0 -24368917.652 144838.376 7577797.141 10 0 60085 44100.00000 0 -23247386.166 73100.740 10529864.217 10 0 60085 45000.00000 0 -21794991.379 -168910.165 13277688.462 10 0 60085 45900.00000 0 -20058533.549 -617950.275 15767998.362 10 0 60085 46800.00000 0 -18093275.676 -1300938.932 17952519.341 10 0 60085 47700.00000 0 -15960724.836 -2233585.581 19788903.509 10 0 60085 48600.00000 0 -13726171.749 -3419492.547 21241544.805 10 0 60085 49500.00000 0 -11456090.616 -4849772.304 22282264.434 10 0 60085 50400.00000 0 -9215506.841 -6503196.224 22890854.032 10 0 60085 51300.00000 0 -7065441.263 -8346869.796 23055466.572 10 0 60085 52200.00000 0 -5060536.264 -10337407.552 22772847.767 10 0 60085 53100.00000 0 -3246961.537 -12422560.215 22048403.500 10 0 60085 54000.00000 0 -1660685.712 -14543227.796 20896101.691 10 0 60085 54900.00000 0 -326185.007 -16635776.265 19338209.883 10 0 60085 55800.00000 0 744357.925 -18634562.461 17404872.821 10 0 60085 56700.00000 0 1551332.035 -20474562.960 15133537.195 10 0 60085 57600.00000 0 2107441.598 -22093997.789 12568233.676 10 0 60085 58500.00000 0 2436926.674 -23436839.568 9758729.222 10 0 60085 59400.00000 0 2574293.397 -24455102.937 6759565.387 10 0 60085 60300.00000 0 2562607.910 -25110817.881 3629000.780 10 0 60085 61200.00000 0 2451426.390 -25377603.435 427878.145 10 0 60085 62100.00000 0 2294449.223 -25241774.827 -2781561.708 10 0 60085 63000.00000 0 2146999.380 -24702936.661 -5936895.595 10 0 60085 63900.00000 0 2063432.705 -23774036.390 -8976738.796 10 0 60085 64800.00000 0 2094590.913 -22480875.240 -11841946.455 10 0 60085 65700.00000 0 2285406.372 -20861096.753 -14476771.287 10 0 60085 66600.00000 0 2672761.299 -18962695.294 -16829954.228 10 0 60085 67500.00000 0 3283693.141 -16842107.213 -18855726.209 10 0 60085 68400.00000 0 4134023.112 -14561964.880 -20514701.219 10 0 60085 69300.00000 0 5227466.803 -12188607.952 -21774643.110 10 0 60085 70200.00000 0 6555265.229 -9789456.202 -22611091.384 10 0 60085 71100.00000 0 8096352.679 -7430353.745 -23007834.105 10 0 60085 72000.00000 0 9818054.936 -5172995.468 -22957219.123 10 0 60085 72900.00000 0 11677289.187 -3072542.600 -22460298.076 10 0 60085 73800.00000 0 13622215.793 -1175526.194 -21526800.786 10 0 60085 74700.00000 0 15594273.152 481874.995 -20174940.937 10 0 60085 75600.00000 0 17530510.812 1875111.648 -18431057.091 10 0 60085 76500.00000 0 19366123.503 2992044.180 -16329096.209 10 0 60085 77400.00000 0 21037080.255 3833195.190 -13909949.833 10 0 60085 78300.00000 0 22482738.758 4411465.258 -11220655.919 10 0 60085 79200.00000 0 23648335.713 4751325.737 -8313481.903 10 0 60085 80100.00000 0 24487248.993 4887524.135 -5244906.949 10 0 60085 81000.00000 0 24962937.053 4863358.104 -2074523.314 10 0 60085 81900.00000 0 25050474.514 4728592.090 1136121.640 10 0 60085 82800.00000 0 24737619.781 4537105.639 4324720.073 10 0 60085 83700.00000 0 24025370.253 4344373.483 7429411.537 10 0 60085 84600.00000 0 22927982.093 4204884.427 10389980.608 10 0 60085 85500.00000 0 21472453.988 4169608.419 13149020.993 10 0 60086 0.00000 0 19697496.789 4283618.948 15653043.590 10 0 60086 900.00000 0 17652031.126 4583971.279 17853508.674 10 0 60086 1800.00000 0 15393277.975 5097925.908 19707759.463 10 0 60086 2700.00000 0 12984518.290 5841592.407 21179844.130 10 0 60086 3600.00000 0 10492616.684 6819050.958 22241207.654 10 0 60086 4500.00000 0 7985410.559 8021989.107 22871242.191 10 0 60086 5400.00000 0 5529072.390 9429869.832 23057685.600 10 0 60086 6300.00000 0 3185553.697 11010625.085 22796860.769 10 0 60086 7200.00000 0 1010215.847 12721847.086 22093751.121 10 0 60086 8100.00000 0 -950254.936 14512429.093 20961910.572 10 0 60086 9000.00000 0 -2659562.615 16324588.570 19423209.099 10 0 60086 9900.00000 0 -4093075.809 18096189.552 17507418.032 10 0 60086 10800.00000 0 -5238609.247 19763268.270 15251642.107 10 0 60086 11700.00000 0 -6096680.098 21262657.191 12699608.248 10 0 60086 12600.00000 0 -6680228.840 22534597.991 9900823.935 10 0 60086 13500.00000 0 -7013816.787 23525233.920 6909620.722 10 0 60086 14400.00000 0 -7132334.412 24188876.581 3784100.951 10 0 60086 15300.00000 0 -7079275.325 24489951.165 585008.041 10 0 60086 16200.00000 0 -6904649.375 24404537.403 -2625457.527 10 0 60086 17100.00000 0 -6662623.803 23921440.352 -5784853.019 10 0 60086 18000.00000 0 -6408993.145 23042744.902 -8831714.634 10 0 60086 18900.00000 0 -6198586.022 21783829.721 -11706760.460 10 0 60086 19800.00000 0 -6082719.725 20172839.294 -14354050.910 10 0 60086 20700.00000 0 -6106811.482 18249635.732 -16722083.232 10 0 60086 21600.00000 0 -6308248.580 16064274.021 -18764798.180 10 0 60086 22500.00000 0 -6714608.399 13675064.547 -20442478.874 10 0 60086 23400.00000 0 -7342304.415 11146304.031 -21722524.209 10 0 60086 24300.00000 0 -8195716.061 8545769.810 -22580081.875 10 0 60086 25200.00000 0 -9266839.696 5942082.088 -22998528.966 10 0 60086 26100.00000 0 -10535475.901 3402044.102 -22969791.251 10 0 60086 27000.00000 0 -11969945.579 988070.719 -22494495.367 10 0 60086 27900.00000 0 -13528305.146 -1244188.001 -21581951.427 10 0 60086 28800.00000 0 -15160010.042 -3247930.091 -20249966.796 10 0 60086 29700.00000 0 -16807956.978 -4986906.151 -18524494.913 10 0 60086 30600.00000 0 -18410819.490 -6436675.285 -16439126.217 10 0 60086 31500.00000 0 -19905578.939 -7585361.623 -14034431.184 10 0 60086 32400.00000 0 -21230144.917 -8433881.529 -11357168.344 10 0 60086 33300.00000 0 -22325955.225 -8995633.736 -8459372.712 10 0 60086 34200.00000 0 -23140446.331 -9295667.191 -5397342.516 10 0 60086 35100.00000 0 -23629290.689 -9369363.225 -2230544.021 10 0 60086 36000.00000 0 -23758307.030 -9260689.053 979544.057 10 0 60086 36900.00000 0 -23504963.494 -9020097.455 4170623.899 10 0 60086 37800.00000 0 -22859410.582 -8702162.289 7280786.313 10 0 60086 38700.00000 0 -21825000.640 -8363050.342 10249709.345 10 0 60086 39600.00000 0 -20418272.134 -8057936.752 13019824.498 10 0 60086 40500.00000 0 -18668399.280 -7838473.300 15537428.153 10 0 60086 41400.00000 0 -16616129.872 -7750416.461 17753717.041 10 0 60086 42300.00000 0 -14312255.334 -7831515.149 19625728.231 10 0 60086 43200.00000 0 -11815676.247 -8109747.079 21117166.098 10 0 60086 44100.00000 0 -9191143.197 -8601977.995 22199101.009 10 0 60086 45000.00000 0 -6506765.992 -9313100.330 22850526.853 10 0 60086 45900.00000 0 -3831393.704 -10235687.944 23058767.198 10 0 60086 46800.00000 0 -1231973.106 -11350182.155 22819722.551 10 0 60086 47700.00000 0 1229005.971 -12625602.288 22137953.960 10 0 60086 48600.00000 0 3495873.487 -14020752.167 21026601.109 10 0 60086 49500.00000 0 5521853.169 -15485873.376 19507135.880 10 0 60086 50400.00000 0 7270762.228 -16964677.336 17608955.369 10 0 60086 51300.00000 0 8718266.795 -18396672.218 15368821.251 10 0 60086 52200.00000 0 9852641.300 -19719688.093 12830155.301 10 0 60086 53100.00000 0 10675000.474 -20872494.877 10042203.814 10 0 60086 54000.00000 0 11198994.638 -21797403.316 7059086.344 10 0 60086 54900.00000 0 11449981.464 -22442739.402 3938746.713 10 0 60086 55800.00000 0 11463709.446 -22765087.462 741826.544 10 0 60086 56700.00000 0 11284569.112 -22731206.538 -2469516.642 10 0 60086 57600.00000 0 10963486.464 -22319538.196 -5632823.297 10 0 60086 58500.00000 0 10555548.477 -21521240.981 -8686553.328 10 0 60086 59400.00000 0 10117462.052 -20340706.770 -11571290.566 10 0 60086 60300.00000 0 9704954.932 -18795536.181 -14230905.896 10 0 60086 61200.00000 0 9370229.636 -16915973.191 -16613655.577 10 0 60086 62100.00000 0 9159579.086 -14743822.043 -18673192.743 10 0 60086 63000.00000 0 9111265.642 -12330891.396 -20369472.017 10 0 60086 63900.00000 0 9253753.872 -9737030.622 -21669529.440 10 0 60086 64800.00000 0 9604372.236 -7027840.187 -22548122.666 10 0 60086 65700.00000 0 10168460.506 -4272151.542 -22988219.241 10 0 60086 66600.00000 0 10939039.104 -1539381.486 -22981323.883 10 0 60086 67500.00000 0 11897014.418 1103129.140 -22527638.876 10 0 60086 68400.00000 0 13011911.510 3592682.111 -21636054.905 10 0 60086 69300.00000 0 14243103.443 5873587.680 -20323972.917 10 0 60086 70200.00000 0 15541485.522 7899232.127 -18616960.775 10 0 60086 71100.00000 0 16851524.104 9633762.027 -16548251.571 10 0 60086 72000.00000 0 18113593.806 11053316.426 -14158093.504 10 0 60086 72900.00000 0 19266504.903 12146757.001 -11492964.054 10 0 60086 73800.00000 0 20250114.569 12915867.418 -8604663.793 10 0 60086 74700.00000 0 21007912.166 13375015.221 -5549307.587 10 0 60086 75600.00000 0 21489469.752 13550292.176 -2386232.948 10 0 60086 76500.00000 0 21652654.736 13478170.788 823153.099 10 0 60086 77400.00000 0 21465511.543 13203734.963 4016565.969 10 0 60086 78300.00000 0 20907733.121 12778560.521 7132051.010 10 0 60086 79200.00000 0 19971660.364 12258335.816 10109183.004 10 0 60086 80100.00000 0 18662767.365 11700323.422 12890234.399 10 0 60086 81000.00000 0 16999611.885 11160770.244 15421289.822 10 0 60086 81900.00000 0 15013252.754 10692375.294 17653285.668 10 0 60086 82800.00000 0 12746158.042 10341921.736 19542955.118 10 0 60086 83700.00000 0 10250648.871 10148172.650 21053660.958 10 0 60086 84600.00000 0 7586942.796 10140118.823 22156100.822 10 0 60086 85500.00000 0 4820877.142 10335652.074 22828871.846 10 0 60087 0.00000 0 2021405.940 10740719.820 23058884.409 10 0 60087 900.00000 0 -742028.400 11348996.916 22841617.303 10 0 60087 1800.00000 0 -3402137.198 12142088.490 22181209.287 10 0 60087 2700.00000 0 -5896337.947 13090256.805 21090385.391 10 0 60087 3600.00000 0 -8169108.608 14153642.150 19590218.439 10 0 60087 4500.00000 0 -10174048.353 15283927.844 17709729.821 10 0 60087 5400.00000 0 -11875559.591 16426380.476 15485336.214 10 0 60087 6300.00000 0 -13250081.768 17522180.660 12960151.937 10 0 60087 7200.00000 0 -14286825.834 18510946.943 10183159.505 10 0 60087 8100.00000 0 -14987978.987 19333346.990 7208263.693 10 0 60087 9000.00000 0 -15368371.372 19933685.989 4093246.901 10 0 60087 9900.00000 0 -15454619.042 20262362.668 898646.001 10 0 60087 10800.00000 0 -15283779.636 20278088.502 -2313427.406 10 0 60087 11700.00000 0 -14901578.023 19949775.348 -5480499.888 10 0 60087 12600.00000 0 -14360277.450 19258010.572 -8540957.916 10 0 60087 13500.00000 0 -13716287.002 18196056.084 -11435253.784 10 0 60087 14400.00000 0 -13027607.421 16770327.873 -14107071.385 10 0 60087 15300.00000 0 -12351224.237 15000334.663 -16504428.286 10 0 60087 16200.00000 0 -11740559.318 12918077.280 -18580692.020 10 0 60087 17100.00000 0 -11243089.311 10566933.138 -20295490.425 10 0 60087 18000.00000 0 -10898232.194 8000072.016 -21615498.089 10 0 60087 18900.00000 0 -10735591.539 5278468.969 -22515083.702 10 0 60087 19800.00000 0 -10773632.725 2468597.011 -22976806.019 10 0 60087 20700.00000 0 -11018846.923 -360104.456 -22991749.125 10 0 60087 21600.00000 0 -11465437.906 -3137880.370 -22559691.020 10 0 60087 22500.00000 0 -12095544.618 -5797319.991 -21689102.666 10 0 60087 23400.00000 0 -12879989.840 -8275916.041 -20396977.933 10 0 60087 24300.00000 0 -13779523.102 -10518417.267 -18708498.083 10 0 60087 25200.00000 0 -14746505.264 -12478877.533 -16656537.499 10 0 60087 26100.00000 0 -15726963.530 -14122317.162 -14281020.450 10 0 60087 27000.00000 0 -16662930.192 -15425928.646 -11628141.481 10 0 60087 27900.00000 0 -17494966.379 -16379777.820 -8749464.652 10 0 60087 28800.00000 0 -18164764.318 -16986972.781 -5700919.279 10 0 60087 29700.00000 0 -18617718.318 -17263295.073 -2541711.820 10 0 60087 30600.00000 0 -18805355.999 -17236310.212 666824.755 10 0 60087 31500.00000 0 -18687527.195 -16943996.380 3862421.548 10 0 60087 32400.00000 0 -18234258.196 -16432950.257 6983080.968 10 0 60087 33300.00000 0 -17427193.121 -15756246.526 9968277.107 10 0 60087 34200.00000 0 -16260561.559 -14971041.971 12760125.949 10 0 60087 35100.00000 0 -14741631.519 -14136025.502 15304502.923 10 0 60087 36000.00000 0 -12890628.211 -13308821.587 17552086.529 10 0 60087 36900.00000 0 -10740121.429 -12543456.314 19459308.312 10 0 60087 37800.00000 0 -8333906.302 -11887992.316 20989191.460 10 0 60087 38700.00000 0 -5725423.055 -11382431.543 22112062.551 10 0 60087 39600.00000 0 -2975780.415 -11056973.584 22806123.298 10 0 60087 40500.00000 0 -151463.502 -10930702.272 23057871.845 10 0 60087 41400.00000 0 2678180.063 -11010755.548 22862365.802 10 0 60087 42300.00000 0 5443572.855 -11292013.470 22223321.984 10 0 60087 43200.00000 0 8077551.339 -11757317.799 21153050.723 10 0 60087 44100.00000 0 10517912.069 -12378214.505 19672225.441 10 0 60087 45000.00000 0 12709755.652 -13116188.780 17809491.174 10 0 60087 45900.00000 0 14607531.874 -13924341.486 15600918.652 10 0 60087 46800.00000 0 16176701.366 -14749437.353 13089313.449 10 0 60087 47700.00000 0 17394944.890 -15534239.314 10323392.666 10 0 60087 48600.00000 0 18252869.891 -16220031.013 7356844.293 10 0 60087 49500.00000 0 18754184.884 -16749221.127 4247286.966 10 0 60087 50400.00000 0 18915334.468 -17067919.204 1055150.159 10 0 60087 51300.00000 0 18764610.536 -17128373.530 -2157503.314 10 0 60087 52200.00000 0 18340777.440 -16891166.976 -5328189.142 10 0 60087 53100.00000 0 17691269.576 -16327076.778 -8395223.403 10 0 60087 54000.00000 0 16870038.117 -15418518.288 -11298929.861 10 0 60087 54900.00000 0 15935138.577 -14160510.321 -13982808.322 10 0 60087 55800.00000 0 14946161.965 -12561120.002 -16394640.406 10 0 60087 56700.00000 0 13961618.812 -10641367.161 -18487510.598 10 0 60087 57600.00000 0 13036387.249 -8434591.183 -20220722.251 10 0 60087 58500.00000 0 12219333.351 -5985306.024 -21560590.509 10 0 60087 59400.00000 0 11551204.446 -3347590.657 -22481096.784 10 0 60087 60300.00000 0 11062884.222 -583081.650 -22964392.345 10 0 60087 61200.00000 0 10774082.966 2241348.768 -23001141.570 10 0 60087 62100.00000 0 10692517.707 5056132.776 -22590698.706 10 0 60087 63000.00000 0 10813616.210 7791659.885 -21741115.130 10 0 60087 63900.00000 0 11120756.639 10380932.760 -20468977.405 10 0 60087 64800.00000 0 11586032.127 12762116.085 -18799079.588 10 0 60087 65700.00000 0 12171507.380 14880873.172 -16763936.397 10 0 60087 66600.00000 0 12830913.772 16692393.879 -14403146.845 10 0 60087 67500.00000 0 13511710.951 18163030.427 -11762620.852 10 0 60087 68400.00000 0 14157427.584 19271474.057 -8893683.911 10 0 60087 69300.00000 0 14710182.115 20009424.710 -5852077.381 10 0 60087 70200.00000 0 15113276.873 20381727.123 -2696873.961 10 0 60087 71100.00000 0 15313755.808 20405969.099 510670.388 10 0 60087 72000.00000 0 15264817.704 20111560.209 3708305.560 10 0 60087 72900.00000 0 14927982.888 19538330.892 6833994.189 10 0 60087 73800.00000 0 14274921.872 18734711.921 9827112.810 10 0 60087 74700.00000 0 13288868.636 17755571.617 12629623.970 10 0 60087 75600.00000 0 11965558.750 16659802.320 15187196.765 10 0 60087 76500.00000 0 10313652.415 15507757.762 17450254.452 10 0 60087 77400.00000 0 8354624.016 14358649.048 19374929.354 10 0 60087 78300.00000 0 6122121.906 13268008.234 20923907.212 10 0 60087 79200.00000 0 3660824.073 12285325.482 22067145.386 10 0 60087 80100.00000 0 1024836.108 11451958.293 22782451.664 10 0 60087 81000.00000 0 -1724303.262 10799399.868 23055913.062 10 0 60087 81900.00000 0 -4519927.754 10347978.634 22882166.706 10 0 60087 82800.00000 0 -7292765.977 10106043.095 22264507.593 10 0 60087 83700.00000 0 -9973577.533 10069666.049 21214830.989 10 0 60087 84600.00000 0 -12495794.713 10222880.662 19753410.002 10 0 60087 85500.00000 0 -14798061.151 10538438.836 17908511.874 10 0 60088 0.00000 0 -16826562.611 10979060.425 15715859.667 10 0 60088 900.00000 0 -18537054.498 11499121.558 13217947.478 10 0 60088 1800.00000 0 -19896499.234 12046710.832 10463224.515 10 0 60088 2700.00000 0 -20884248.785 12565967.809 7505159.122 10 0 60088 3600.00000 0 -21492720.107 12999604.620 4401203.181 10 0 60088 4500.00000 0 -21727536.187 13291504.063 1211675.742 10 0 60088 5400.00000 0 -21607126.567 13389283.777 -2001412.189 10 0 60088 6300.00000 0 -21161804.211 13246717.043 -5175568.392 10 0 60088 7200.00000 0 -20432357.843 12825906.678 -8249041.442 10 0 60088 8100.00000 0 -19468219.545 12099118.639 -11162029.353 10 0 60088 9000.00000 0 -18325285.452 11050196.426 -13857850.444 10 0 60088 9900.00000 0 -17063482.220 9675495.063 -16284052.768 10 0 60088 10800.00000 0 -15744182.605 7984293.889 -18393439.840 10 0 60088 11700.00000 0 -14427579.797 5998669.522 -20144992.262 10 0 60088 12600.00000 0 -13170131.667 3752833.230 -21504667.074 10 0 60088 13500.00000 0 -12022182.856 1291959.599 -22446059.338 10 0 60088 14400.00000 0 -11025864.792 -1329445.251 -22950913.345 10 0 60088 15300.00000 0 -10213361.745 -4049568.313 -23009473.864 10 0 60088 16200.00000 0 -9605615.274 -6801623.249 -22620671.084 10 0 60088 17100.00000 0 -9211520.794 -9516396.078 -21792136.116 10 0 60088 18000.00000 0 -9027649.131 -12124897.445 -20540047.174 10 0 60088 18900.00000 0 -9038503.746 -14561011.565 -18888809.755 10 0 60088 19800.00000 0 -9217301.789 -16764032.164 -16870577.275 10 0 60088 20700.00000 0 -9527245.065 -18680980.469 -14524621.657 10 0 60088 21600.00000 0 -9923226.478 -20268609.446 -11896566.200 10 0 60088 22500.00000 0 -10353899.153 -21495011.631 -9037495.756 10 0 60088 23400.00000 0 -10764020.284 -22340764.414 -6002961.608 10 0 60088 24300.00000 0 -11096970.169 -22799566.069 -2851900.576 10 0 60088 25200.00000 0 -11297339.617 -22878337.103 354510.506 10 0 60088 26100.00000 0 -11313476.088 -22596783.905 3554042.445 10 0 60088 27000.00000 0 -11099880.759 -21986444.172 6684620.247 10 0 60088 27900.00000 0 -10619355.080 -21089255.212 9685525.062 10 0 60088 28800.00000 0 -9844806.025 -19955706.109 12498568.194 10 0 60088 29700.00000 0 -8760633.661 -18642651.908 15069214.578 10 0 60088 30600.00000 0 -7363642.179 -17210881.887 17347634.352 10 0 60088 31500.00000 0 -5663435.527 -15722543.955 19289662.614 10 0 60088 32400.00000 0 -3682280.197 -14238532.871 20857649.468 10 0 60088 33300.00000 0 -1454439.813 -12815951.187 22021184.640 10 0 60088 34200.00000 0 974991.958 -11505748.543 22757683.298 10 0 60088 35100.00000 0 3551713.036 -10350637.337 23052822.350 10 0 60088 36000.00000 0 6214223.213 -9383371.177 22900819.146 10 0 60088 36900.00000 0 8896141.133 -8625457.473 22304547.290 10 0 60088 37800.00000 0 11528733.318 -8086357.536 21275487.121 10 0 60088 38700.00000 0 14043551.620 -7763207.358 19833511.291 10 0 60088 39600.00000 0 16375070.715 -7641070.691 18006508.823 10 0 60088 40500.00000 0 18463216.877 -7693713.890 15829853.962 10 0 60088 41400.00000 0 20255683.384 -7884870.157 13345729.066 10 0 60088 42300.00000 0 21709936.270 -8169940.239 10602313.679 10 0 60088 43200.00000 0 22794826.693 -8498058.051 7652854.695 10 0 60088 44100.00000 0 23491742.296 -8814434.052 4554635.067 10 0 60088 45000.00000 0 23795249.001 -9062877.122 1367860.875 10 0 60088 45900.00000 0 23713195.999 -9188387.747 -1845511.511 10 0 60088 46800.00000 0 23266279.344 -9139711.926 -5022984.993 10 0 60088 47700.00000 0 22487082.422 -8871746.616 -8102743.767 10 0 60088 48600.00000 0 21418633.886 -8347693.561 -11024863.194 10 0 60088 49500.00000 0 20112544.094 -7540868.977 -13732483.105 10 0 60088 50400.00000 0 18626799.104 -6436091.093 -16172920.801 10 0 60088 51300.00000 0 17023305.699 -5030585.529 -18298701.421 10 0 60088 52200.00000 0 15365291.378 -3334368.967 -20068485.153 10 0 60088 53100.00000 0 13714669.226 -1370093.766 -21447872.994 10 0 60088 54000.00000 0 12129478.719 827641.020 -22410075.403 10 0 60088 54900.00000 0 10661510.055 3213484.242 -22936431.112 10 0 60088 55800.00000 0 9354211.527 5732983.617 -23016766.326 10 0 60088 56700.00000 0 8240967.209 8324624.652 -22649587.846 10 0 60088 57600.00000 0 7343816.379 10922173.022 -21842106.791 10 0 60088 58500.00000 0 6672667.389 13457223.144 -20610092.895 10 0 60088 59400.00000 0 6225037.720 15861847.194 -18977562.571 10 0 60088 60300.00000 0 5986329.814 18071234.674 -16976307.016 10 0 60088 61200.00000 0 5930629.763 20026212.975 -14645269.742 10 0 60088 62100.00000 0 6021993.903 21675544.409 -12029785.733 10 0 60088 63000.00000 0 6216167.976 22977904.538 -9180697.117 10 0 60088 63900.00000 0 6462665.259 23903459.876 -6153362.682 10 0 60088 64800.00000 0 6707115.137 24434979.880 -3006580.637 10 0 60088 65700.00000 0 6893782.157 24568437.626 198554.282 10 0 60088 66600.00000 0 6968148.637 24313074.979 3399836.926 10 0 60088 67500.00000 0 6879451.265 23690930.497 6535157.866 10 0 60088 68400.00000 0 6583064.217 22735850.791 9543706.042 10 0 60088 69300.00000 0 6042627.936 21492027.543 12367144.587 10 0 60088 70200.00000 0 5231833.483 20012122.126 14950737.194 10 0 60088 71100.00000 0 4135786.934 18355056.725 17244403.589 10 0 60088 72000.00000 0 2751895.922 16583564.549 19203684.114 10 0 60088 72900.00000 0 1090240.392 14761601.420 20790595.445 10 0 60088 73800.00000 0 -826588.948 12951726.483 21974361.581 10 0 60088 74700.00000 0 -2964178.899 11212560.802 22732006.637 10 0 60088 75600.00000 0 -5277481.477 9596429.122 23048798.595 10 0 60088 76500.00000 0 -7712453.123 8147282.324 22918535.776 10 0 60088 77400.00000 0 -10208078.825 6898986.450 22343670.648 10 0 60088 78300.00000 0 -12698698.608 5874048.935 21335268.346 10 0 60088 79200.00000 0 -15116541.180 5082834.652 19912800.233 10 0 60088 80100.00000 0 -17394360.640 4523304.140 18103775.718 10 0 60088 81000.00000 0 -19468067.551 4181284.698 15943218.524 10 0 60088 81900.00000 0 -21279245.455 4031262.868 13472996.487 10 0 60088 82800.00000 0 -22777448.152 4037664.982 10741016.893 10 0 60088 83700.00000 0 -23922181.764 4156571.815 7800302.143 10 0 60088 84600.00000 0 -24684488.390 4337794.945 4707963.030 10 0 60088 85500.00000 0 -25048064.463 4527226.824 1524089.368 99